Regional Weather Roundup
Issued by NWS Wilmington, NC

Home | Current Version | Previous Version | Text Only | Print | Product List | Glossary On
Versions: 1 2 3 4 5 6 7 8 9 10 11 12 13 14 15 16 17 18 19 20 21 22 23 24 25 26 27 28
000
ASUS42 KILM 250410
RWRILM
RWRILM
REGIONAL HOURLY WEATHER ROUNDUP
NATIONAL WEATHER SERVICE WILMINGTON NC
1200 AM EDT SAT OCT 25 2014

NOTE: "FAIR" INDICATES FEW OR NO CLOUDS BELOW 12,000 FEET WITH NO
SIGNIFICANT WEATHER AND/OR OBSTRUCTIONS TO VISIBILITY.

...............WFO WILMINGTON COUNTY WARNING AREA...............

......COASTAL NC AND SC COUNTIES......

CITY           SKY/WX    TMP DP  RH WIND       PRES   REMARKS
WILMINGTON     PTCLDY    52  50  93 CALM      30.00R
SOUTHPORT      PTCLDY    52  49  90 CALM      30.00S
N MYRTLE BEACH MOCLDY    54  52  93 CALM      30.00R
MYRTLE BEACH   MOCLDY    55  50  82 N6        29.99F

......INLAND NC AND SC COUNTIES.......

CITY           SKY/WX    TMP DP  RH WIND       PRES   REMARKS
LUMBERTON      MOCLDY    49  46  90 CALM      30.00F
ELIZABETHTOWN  PTCLDY    53  51  92 CALM      30.00S
WHITEVILLE     MOCLDY    51  49  93 CALM      30.00S
FLORENCE       CLEAR     56  50  80 NW3       30.00F
DARLINGTON     CLEAR     48  45  87 CALM      30.02F

....................REST OF NORTH CAROLINA......................

.........EASTERN NC.........

CITY           SKY/WX    TMP DP  RH WIND       PRES   REMARKS
CAPE HATTERAS  CLEAR     59  55  87 NW5       29.96F
JACKSONVILLE   CLEAR     46  43  87 CALM      29.99F
MOREHEAD CITY  CLEAR     57  51  80 NW8       29.98S
KENANSVILLE    CLEAR     45  45  99 CALM      30.00S
NEW BERN       CLEAR     52  48  86 CALM      29.99F
ELIZABETH CITY FAIR      51  44  77 W5        29.96F

.........CENTRAL NC.........

CITY           SKY/WX    TMP DP  RH WIND       PRES   REMARKS
RALEIGH DURHAM PTCLDY    47  45  93 CALM      29.99F
ROCKY MOUNT    CLEAR     46  44  93 CALM      29.98F
ROANOKE RAPIDS NOT AVBL
FAYETTEVILLE   PTCLDY    54  49  83 W3        29.99F
HOFFMAN        PTCLDY    46  45  96 S2        30.03S

.........WESTERN NC.........

CITY           SKY/WX    TMP DP  RH WIND       PRES   REMARKS
CHARLOTTE      CLEAR     50  45  83 CALM      30.02F
GREENSBORO     PTCLDY    49  42  77 CALM      29.99F
HICKORY        NOT AVBL
BOONE          NOT AVBL
ASHEVILLE      NOT AVBL

.....................REST OF SOUTH CAROLINA.....................

.........EASTERN SC.........

CITY           SKY/WX    TMP DP  RH WIND       PRES   REMARKS
CHARLESTON     CLOUDY    58  51  78 CALM      30.01R
BEAUFORT MCAS  PTCLDY    56  51  84 SW3       30.01S
HILTON HEAD    NOT AVBL

.........CENTRAL SC.........

CITY           SKY/WX    TMP DP  RH WIND       PRES   REMARKS
COLUMBIA       CLEAR     49  45  86 CALM      30.02S
ORANGEBURG     CLEAR     52  49  89 CALM      30.01F
SUMTER SHAW    CLEAR     51  48  89 CALM      30.00S

.........WESTERN SC.........

CITY           SKY/WX    TMP DP  RH WIND       PRES   REMARKS
GREENVILLE     NOT AVBL
ROCK HILL      CLEAR     44  42  93 CALM      30.02F
ANDERSON       CLEAR     49  46  90 CALM      30.02S
CLEMSON        NOT AVBL
GREENWOOD      CLEAR     47  45  93 CALM      30.03F


...................COASTAL AND OFFSHORE REPORTS..................

................LOCAL PIERS AND NC RESERVE................


STATION/POSITION TIME  SKY/WX   TEMP    WIND        PRES    VSBY
                                AIR SEA DIR/SP/G
                 (UTC)          (F)     (DEG/KT/KT) (MB)    (MI)
JOHNY MRCER PIER 0400            60 73  290/  6/  7 1015.1R
NC RESRV MASNBRO 0300            56     250/  1     1015.0S
OCEAN CREST PIER 0400            59 70  310/  5/  6 1014.7F
SPRINGMAID  PIER 0400            58 69  310/  5/  6 1015.7S


................COASTAL AND OFFSHORE BUOYS................


STATION/POSITION TIME  SKY/WX   TEMP    WIND        PRES    VSBY
                                AIR SEA DIR/SP/G
                 (UTC)          (F)     (DEG/KT/KT) (MB)    (MI)
DIMNDSHOAL 41025 0400            66     320/ 16/ 17 1014.5F
WVE H/P(F/S)=  4/ 9 WND WVE H/P(F/S)=  3/ 6 SWL H/P/D(F/S/D)=  2/ 50/ 9

CAPE LOOKOUT     0300            66     320/  8/ 10 1014.9F
ONSLOW BAY 41036 0400            68 74  330/ 10/ 12 1014.8S
WVE H/P(F/S)=  3/10 SWL H/P/D(F/S/D)=  2/ 80/10

5 WRITEBCH 41038 0400            62 72  290/  8/  8   N/A
MASONBORO  41110 0400               71                N/A
WVE H/P(F/S)=  2/10 WND WVE H/P(F/S)=  2/10 SWL H/P/D(F/S/D)=  2/100/11

WILM HARBR 41108 0400               70                N/A
WVE H/P(F/S)=  1/11 WND WVE H/P(F/S)=  2/10

27WRITEBCH 41037 0300            64 75  330/  8/ 10 1015.1F
FRYING PAN 41013 0400            66 73  350/  6/ 10 1016.5R
WVE H/P(F/S)=  2/10 SWL H/P/D(F/S/D)=  2/110/10

SUNST NRSH 41024 0300            63     320/  6/  8 1015.4R
CAPRS NRSH 41029 NOT AVBL
EDISTO     41004 0400            69 78  360/  6/  8 1015.4F
WVE H/P(F/S)=  3/10 SWL H/P/D(F/S/D)=  3/10



..........OFFSHORE BUOYS BEYOND 100 NM OFFSHORE...........
.....IN A TRIANGLE---HAT TO BERMUDA TO BAHAMAS TO HAT.....


STATION/POSITION TIME  SKY/WX   TEMP    WIND        PRES    VSBY
                                AIR SEA DIR/SP/G
                 (UTC)          (F)     (DEG/KT/KT) (MB)    (MI)
150E HAT   41001 NOT AVBL
W BERMUDA  41048 0305            75 79  320/ 10/ 14 1012.5
WVE H/P(F/S)=  7/10 WND WVE H/P(F/S)=  2/ 5 SWL H/P/D(F/S/D)=  7/350/10

ATLANTIC S 41049 0344            80 81  240/  6/  8 1013.7F
WVE H/P(F/S)=  9/10 WND WVE H/P(F/S)=  2/ 4 SWL H/P/D(F/S/D)=  8/320/10

E BAHAMAS  41046 0342            83 84  160/ 14/ 16 1011.9F
WVE H/P(F/S)=  5/11 WND WVE H/P(F/S)=  2/ 5

NE BAHAMAS 41047 0255            74 81   70/  8/ 12 1010.9
WVE H/P(F/S)=  6/10 WND WVE H/P(F/S)=  2/ 4 SWL H/P/D(F/S/D)=  5/360/10

120E CANVRL41010 0400            76 82   40/ 12/ 16 1013.7S
WVE H/P(F/S)=  3/10 WND WVE H/P(F/S)=  2/ 4 SWL H/P/D(F/S/D)=  2/ 40/10


END



USA.gov is the U.S. government's official web portal to all federal, state and local government web resources and services.